Simultaneous Nadir Overpasses (SNOs) Predictions

Prediction of SNOs between GOES-17 and METOP-C Satellite Orbit:

Table of predicted SNOs for the next 14.0 days since TLE Epoch: 10/24/2020
Index Date Time (GOES-17) GOES-17 Lat,Lon METOP-C Lat,Lon Distance(km) Time Diff (sec)
1 10/24/2020 18:44:10 -0.04,-137.20 0.23,-138.50 147.57 80
2 10/25/2020 18:26:12 -0.04,-137.20 -0.89,-133.51 421.88 80
3 10/27/2020 06:45:12 0.04,-137.22 -0.18,-138.09 100.51 80
4 10/28/2020 06:21:54 0.04,-137.22 0.94,-133.10 468.72 80
5 10/29/2020 18:40:47 -0.04,-137.21 0.08,-137.66 51.96 80
6 11/01/2020 06:41:50 0.03,-137.21 0.04,-137.27 6.68 80
7 11/03/2020 18:40:05 -0.03,-137.19 -0.14,-136.84 40.20 80
8 11/05/2020 06:59:05 0.02,-137.18 -0.91,-141.43 484.15 80
9 11/06/2020 06:35:45 0.02,-137.17 0.16,-136.43 83.53 80
